Location: Kerb�bon
(47.7970°N, 3.3487°W)
Time: 11:29:46
(UTC+00:00)

X-37B - Pass Details

Date: 12 May 2021
Orbit: 386 x 389 km, 45.0° (Epoch: 10 June)

Event Time Altitude Azimuth Distance (km) Brightness Sun altitude
Rises 20:33:46 0° 273° (W) 2,274 5.4 -8.1°
Reaches altitude 10° 20:36:02 10° 260° (W) 1,417 4.0 -8.4°
Maximum altitude 20:38:45 26° 202° (SSW) 816 2.0 -8.8°
Enters shadow 20:41:04 12° 148° (SSE) 1,280 2.6 -9.1°
